Regional Weather Roundup
Issued by NWS Jackson, KY

Home | Current Version | Previous Version | Graphics & Text | Print | Product List | Glossary On
Versions: 1 2 3 4 5 6 7 8 9 10 11 12 13 14 15 16 17 18 19 20 21 22 23 24 25 26 27 28
000
ASUS43 KJKL 231910
RWRJKL

EAST KENTUCKY HOURLY WEATHER ROUNDUP
NATIONAL WEATHER SERVICE JACKSON KY
300 PM EDT THU MAR 23 2017

NOTE: "FAIR" INDICATES FEW OR NO CLOUDS BELOW 12,000 FEET WITH
NO SIGNIFICANT WEATHER AND/OR OBSTRUCTIONS TO VISIBILITY.

* THESE REPORTS ARE NOT UNDER NWS QUALITY CONTROL AND MAY NOT
  REPORT WEATHER SUCH AS PRECIPITATION AND FOG.

KYZ079-080-083-085-087-088-110-112-115-119-120-232000
...EASTERN KENTUCKY...

CITY           SKY/WX    TMP DP  RH WIND       PRES   REMARKS
JACKSON        SUNNY     62  28  27 S7        30.34F
LONDON         SUNNY     63  25  23 VRB3      30.33F
SOMERSET*      SUNNY     63  30  29 W7        30.34F
MONTICELLO*    MOSUNNY   66  33  29 N8        30.33F
WILLIAMSBURG*  CLEAR     64  28  25 SE12      30.33F
MIDDLESBORO*   SUNNY     63  31  29 S6        30.36F
HARLAN APT*    CLEAR     63  25  23 CALM      30.35F
PIKE CO APT*     N/A     61  28  28 SW5       30.35F
BIG SANDY APT* CLEAR     61  27  27 CALM      30.36F
MOREHEAD APT*  CLEAR     59  21  23 SW9       30.37F
ASHLAND*       SUNNY     57  30  35 E3        30.37F
$$

KYZ035-036-041-042-044-050-067-078-099-232000
...CENTRAL KENTUCKY...

CITY           SKY/WX    TMP DP  RH WIND       PRES   REMARKS
MT STERLING*   SUNNY     59  30  33 W6        30.37F
FLEMING/MASON* SUNNY     56  25  30 SE7       30.37F
DANVILLE*      MOSUNNY   61  32  33 S6        30.33F
LEXINGTON      SUNNY     59  25  27 SW8       30.34F
FRANKFORT      SUNNY     58  23  26 CALM      30.33F
LOUISVILLE     CLOUDY    57  23  26 SE5       30.32F
LEBANON*         N/A     63  32  31 S9        30.33F
GLASGOW*       CLOUDY    62  33  34 S7        30.32S
BOWLING GREEN  CLOUDY    57  34  41 S7        30.31F
$$

KYZ091>093-OHZ055-061-077-WVZ005-015-034-035-042-232000
...SOUTHERN OHIO/WEST VIRGINIA...

CITY           SKY/WX    TMP DP  RH WIND       PRES   REMARKS
COVINGTON      MOSUNNY   54  23  30 SE10      30.34F
COLUMBUS       MOSUNNY   50  11  20 SE15      30.38F
DAYTON         PTSUNNY   46  20  35 S14       30.37F
WILMINGTON     SUNNY     50  24  36 SE13G18   30.35F
HUNTINGTON     SUNNY     57  22  25 VRB3      30.38F
CHARLESTON     SUNNY     59  22  24 MISG      30.38F
PINEVILLE*     SUNNY     63  13  14 MISG      30.41F
BECKLEY        SUNNY     52  20  28 SE12      30.39F
BLUEFIELD      SUNNY     50  17  27 SE6       30.40F
LOGAN CO APT*    N/A     59  23  25 CALM      30.36F
$$

VAZ002-007-008-TNZ017-027-036-066-071-232000
...SOUTHWEST VIRGINIA/EAST TENNESSEE...

CITY           SKY/WX    TMP DP  RH WIND       PRES   REMARKS
WISE*          SUNNY     59  27  29 CALM      30.38S
JONESVILLE*      N/A     64  27  24 S12       30.39F
ABINGDON*      SUNNY     61  23  23 S3        30.39F
BRISTOL        MOSUNNY   61  26  26 VRB6      30.39F
MORRISTOWN*    CLEAR     63  28  27 VRB7      30.36F
SEVIERVILLE*   CLEAR     63  30  29 CALM      30.36F
KNOXVILLE      PTSUNNY   63  31  30 CALM      30.36F
LAFOLLETTE*    CLEAR     63  32  31 S13       30.38F
OAK RIDGE      MOSUNNY   65  32  29 CALM      30.37F
CROSSVILLE     MOSUNNY   59  34  39 S10G18    30.36F
NASHVILLE      CLOUDY    60  35  39 NE5       30.31F
$$

...KEY TO REMARKS...
VSB - VISIBILITY IN MILES
WCI - WIND CHILL INDEX
HX  - HEAT INDEX

$$




USA.gov is the U.S. government's official web portal to all federal, state and local government web resources and services.